Regional Weather Roundup
Issued by NWS Charleston, SC

Current Version | Previous Version | Text Only | Print | Product List | Glossary Off
Versions: 1 2 3 4 5 6 7 8 9 10 11 12 13 14 15 16 17 18 19 20 21 22 23 24 25 26 27 28 29 30 31 32 33 34 35 36 37 38 39 40 41 42 43 44 45 46 47 48 49 50
000 ASUS42 KCHS 230927 RWRCHS REGIONAL WEATHER ROUNDUP NATIONAL WEATHER SERVICE CHARLESTON SC 500 AM EDT TUE MAY 23 2017 NOTE: "FAIR" INDICATES FEW OR NO CLOUDS BELOW 12,000 FEET WITH NO SIGNIFICANT WEATHER AND/OR OBSTRUCTIONS TO VISIBILITY. NOT ALL STATIONS ARE QUALITY CONTROLLED. USE DATA WITH CAUTION... ESPECIALLY DEWPOINT OBSERVATIONS. SCZ027-030-031-034>040-042>050-231000- ...SOUTHEAST SOUTH CAROLINA... CITY SKY/WX TMP DP RH WIND PRES REMARKS N CHARLESTON PTCLDY 70 68 93 S6 29.84F WATERFRONT PRK N/A 73 72 96 SW7 29.83F JOHNS ISLAND N/A 75 73 94 S6 29.84F PINOPOLIS N/A 70 70 100 CALM 29.76F MONCKS CORNER FAIR 68 66 94 CALM 29.85S SUMMERVILLE FAIR 68 68 100 CALM 29.86S BEAUFORT MCAS MOCLDY 73 72 96 S5 29.84F BEAUFORT ARPT PTSUNNY 72 70 94 SW6 29.84F HILTON HEAD IS PTCLDY 73 73 100 S10G16 29.86F WALTERBORO PTSUNNY 66 66 100 CALM 29.85F ALLENDALE CLOUDY 72 70 94 CALM 29.83F ...SOUTHERN MIDLANDS AND PEE DEE... CITY SKY/WX TMP DP RH WIND PRES REMARKS GEORGETOWN FAIR 68 68 100 CALM 29.87S KINGSTREE FAIR 68 66 94 CALM 29.86R ORANGEBURG CLOUDY 70 69 97 S5 29.85F BARNWELL CLOUDY 72 72 100 CALM 29.84F AIKEN CLOUDY 68 68 100 W3 29.88F MANNING CLOUDY 70 70 100 CALM 29.85F COLUMBIA LGT RAIN 71 69 93 E3 29.83F SUMTER CLOUDY 70 68 96 S3 29.84S FLORENCE CLOUDY 68 68 100 S5 29.86F MYRTLE BEACH LGT RAIN 72 70 94 S9 29.87F N MYRTLE BEACH LGT RAIN 72 71 97 S14 29.86F $$ GAZ063-065-086>088-099>101-113>116-118-119-134>141-150-231000- ...SOUTHEAST GEORGIA... CITY SKY/WX TMP DP RH WIND PRES REMARKS SAVANNAH ARPT CLOUDY 72 69 90 S8 29.86S HUNTER AAF CLOUDY 72 72 100 S6 29.84F FORT STEWART CLOUDY 72 70 93 S3 29.84F STATESBORO LGT RAIN 72 72 100 SW5 29.84S SYLVANIA RAIN 71 71 100 CALM 29.84F CLAXTON LGT RAIN N/A N/A N/A CALM 29.85S ...CSRA...CENTRAL AND FAR SOUTHEAST GEORGIA... CITY SKY/WX TMP DP RH WIND PRES REMARKS THOMSON CLOUDY 69 68 98 CALM 29.90S AUGUSTA-BUSH LGT RAIN 72 70 93 CALM 29.84F AUGUSTA-DANIEL LGT RAIN 72 67 84 SW3 29.85F SWAINSBORO LGT RAIN 70 70 100 CALM 29.87S VIDALIA TSTM 72 70 94 NW8 29.88R EASTMAN CLOUDY 71 71 100 SE5 29.88S HAZLEHURST CLOUDY 74 74 100 SW5 29.86R ALMA CLOUDY 74 71 91 S7 29.86F WAYCROSS MOCLDY 75 75 100 SW9 29.87S JESUP PTSUNNY 72 68 88 CALM 29.87S BAXLEY CLOUDY 73 73 100 SW7 29.86S BRUNSWICK CLOUDY 73 72 94 SW7 29.88F SAINT SIMONS PTCLDY 74 71 91 SW8 29.87F $$ SCZ027-028-034-036>038-045-046-048>050-GAZ119-141-231000- ...LAKE AND SUPPLEMENTAL COASTAL OBSERVATIONS... STATION/POSITION TIME TEMP WIND PRES WAVE SWELL AIR SEA DIR/SP/G HT/PER HT/PER/DIR (UTC) (F) (DEG/KT/KT) (MB) (FT/S) (FT/S/D) WINYAH BAY 0845 72 130/ 1 1011.0F LAKE MURRAY 0830 72 250/ 6/ 9 1010.5S ACE BASIN NERRS 0845 72 CALM 1011.0S FORT PULASKI 0900 74 80 220/ 6/ 9 1011.3 SAPELO ISLAND 0830 74 210/ 9 1011.0F $$ ANZ835-935-AMZ111-154-330-350-352-354-370-450-454-472-231000- ...C-MAN AND BUOY OBSERVATIONS... STATION/POSITION TIME TEMP WIND PRES WAVE SWELL AIR SEA DIR/SP/G HT/PER HT/PER/DIR (UTC) (F) (DEG/KT/KT) (MB) (FT/S) (FT/S/D) BUOY 41004 0910 77 78 230/ 16/ 17 1011.0 BUOY 41008 0850 77 78 200/ 16/ 19 1010.7F 4/ 5 FOLLY BEACH CMAN 0900 76 210/ 16/ 18 1011.3F CAPERS NEARSHORE 0908 78 76 220/ 14/ 19 1010.3F FRIPP NEARSHORE 0908 77 78 230/ 16/ 21 1010.1F STATION/POSITION TIME TEMP WIND PRES WAVE SWELL AIR SEA DIR/SP/G HT/PER HT/PER/DIR (UTC) (F) (DEG/KT/KT) (MB) (FT/S) (FT/S/D) 5E ST. MARYS GA 0900 79 N/A 3/ 5 FRYING PAN BUOY 0910 72 77 290/ 2/ 6 1012.0 BUOY 41025 0850 73 78 190/ 17/ 21 1012.5F 4/ 5 2/ 90/ 8 CAPE LOOKOUT NC 0900 73 200/ 6/ 7 1011.8F BUOY 41002 0850 75 77 180/ 16/ 17 1014.8F 3/ 8 2/ 30/ 8 BUOY 41010 0910 78 79 180/ 16/ 17 1013.6 ST AUGUSTINE FL 0900 71 79 220/ 7/ 8 1013.3F $$

USA.gov is the U.S. government's official web portal to all federal, state and local government web resources and services.